Hourly Data Report for October 05, 2017

All times are specified in Local Standard Time (LST). Add 1 hour to adjust for Daylight Saving Time where and when it is observed.

KEJIMKUJIK 1
NOVA SCOTIA

44°24'11.020" N
65°12'11.070" W
125.00 m
8202592
71599
WKG

Download Data

Hourly Data (October 2017)
Hourly Data Report for October 5, 2017
Temp Definition
°C
Dew Point Temp Definition
°C
Rel Hum Definition
%
Wind Dir Definition
10's deg

Wind Spd Definition
km/h
Visibility Definition
km
Stn Press Definition
kPa
Hmdx Definition


Wind Chill Definition


Weather Definition


TIME
00:00 13.6 12.0 90 24 11   100.03     LegendNANA
01:00 14.0 12.4 90 24 13   99.97     LegendNANA
02:00 14.0 12.4 90 23 14   99.88     LegendNANA
03:00 14.2 12.6 90 24 11   99.82     LegendNANA
04:00 14.9 13.0 89 25 13   99.83     LegendNANA
05:00 15.1 13.2 88 25 11   99.80     LegendNANA
06:00 15.4 13.3 88 26 10   99.81     LegendNANA
07:00 15.2 13.2 88 27 8   99.83     LegendNANA
08:00 15.9 13.5 86 26 9   99.85     LegendNANA
09:00 18.2 13.9 76 29 9   99.88     LegendNANA
10:00 20.1 13.8 67 30 11   99.91     LegendNANA
11:00 21.1 13.2 61 32 8   99.89     LegendNANA
12:00 20.9 11.5 55 32 13   99.90     LegendNANA
13:00 21.8 11.5 52 32 7   99.82     LegendNANA
14:00 21.4 9.5 46 29 9   99.80     LegendNANA
15:00 20.9 7.4 42 31 9   99.80     LegendNANA
16:00 20.6 9.2 48 28 5   99.82     LegendNANA
17:00 18.3 8.8 54 28 7   99.81     LegendNANA
18:00 15.3 8.9 66 27 5   99.86     LegendNANA
19:00 13.0 7.9 71 27 4   99.87     LegendNANA
20:00 11.5 8.4 81 29 3   99.95     LegendNANA
21:00 10.8 7.7 81 33 4   100.00     LegendNANA
22:00 9.7 7.2 85 33 4   100.02     LegendNANA
23:00 9.2 7.3 88 34 2   100.01     LegendNANA

Notes on Data Quality.

Legend

  • E = Estimated
  • M = Missing
  • NA = Not Available
  • ‡ = Partner data that is not subject to review by the National Climate Archives
Date modified: